Precipitable_Water
1.13 1.04 1.01 0.98 0.90 0.88 0.87 0.87 0.86 0.82 0.84 0.86 0.86 0.87 0.90 0.90 0.91 0.91 0.93 0.93 0.91 0.86 0.82 0.79 0.83 0.85 0.86 0.86 0.84 0.84 0.87 0.89 0.91 0.93 0.93 0.94 0.94 0.95 0.94 0.96 0.99 1.03
1.04 1.01 1.03 0.99 0.92 0.91 0.91 0.91 0.88 0.86 0.86 0.89 0.91 0.92 0.96 0.95 0.91 0.91 0.89 0.89 0.87 0.81 0.74 0.69 0.74 0.79 0.78 0.74 0.75 0.77 0.80 0.82 0.83 0.87 0.87 0.87 0.87 0.90 0.90 0.92 0.95 0.99
1.03 1.03 1.02 0.96 0.91 0.91 0.91 0.93 0.93 0.92 0.90 0.91 0.94 0.97 0.97 0.98 0.93 0.91 0.89 0.87 0.83 0.77 0.70 0.65 0.67 0.73 0.73 0.72 0.71 0.71 0.74 0.76 0.76 0.79 0.78 0.76 0.78 0.81 0.85 0.89 0.92 0.94
1.06 1.05 1.04 1.01 0.96 0.91 0.92 0.92 0.95 0.92 0.92 0.90 0.92 0.96 0.99 0.98 0.96 0.91 0.87 0.84 0.81 0.76 0.71 0.65 0.63 0.68 0.70 0.71 0.69 0.69 0.71 0.71 0.71 0.71 0.70 0.72 0.77 0.82 0.85 0.90 0.91 0.93
1.05 1.05 1.05 1.02 0.96 0.93 0.93 0.91 0.91 0.91 0.90 0.92 0.92 0.94 0.95 0.96 0.94 0.91 0.86 0.82 0.79 0.74 0.70 0.64 0.62 0.63 0.68 0.67 0.66 0.64 0.65 0.64 0.65 0.66 0.66 0.68 0.72 0.79 0.86 0.90 0.91 0.92
1.08 1.05 1.04 1.02 0.96 0.94 0.93 0.90 0.90 0.91 0.93 0.91 0.90 0.89 0.90 0.93 0.92 0.88 0.84 0.79 0.77 0.73 0.68 0.63 0.59 0.62 0.67 0.65 0.62 0.60 0.59 0.59 0.59 0.61 0.61 0.63 0.65 0.70 0.77 0.87 0.88 0.87
1.07 1.05 1.04 1.03 1.00 0.98 0.91 0.89 0.91 0.92 0.94 0.95 0.91 0.86 0.86 0.88 0.88 0.84 0.80 0.76 0.74 0.70 0.66 0.60 0.55 0.59 0.65 0.63 0.59 0.56 0.55 0.54 0.52 0.51 0.50 0.53 0.58 0.60 0.66 0.74 0.79 0.79
1.10 1.09 1.05 1.02 1.01 0.96 0.90 0.88 0.91 0.92 0.95 0.94 0.88 0.86 0.86 0.86 0.85 0.81 0.76 0.73 0.69 0.66 0.63 0.58 0.54 0.54 0.59 0.60 0.56 0.53 0.52 0.52 0.50 0.49 0.46 0.48 0.54 0.54 0.57 0.62 0.67 0.71
1.10 1.07 1.03 1.02 1.00 0.92 0.87 0.88 0.91 0.93 0.96 0.93 0.90 0.88 0.87 0.85 0.82 0.78 0.73 0.69 0.65 0.62 0.59 0.57 0.55 0.51 0.55 0.57 0.56 0.55 0.55 0.55 0.56 0.53 0.50 0.50 0.54 0.56 0.56 0.58 0.59 0.64
1.06 1.04 1.00 1.00 0.96 0.88 0.85 0.88 0.93 0.94 0.96 0.95 0.92 0.90 0.83 0.82 0.82 0.77 0.72 0.67 0.60 0.58 0.57 0.56 0.54 0.53 0.53 0.59 0.62 0.64 0.64 0.63 0.61 0.62 0.62 0.61 0.61 0.62 0.63 0.65 0.64 0.64
1.02 1.01 0.98 0.97 0.95 0.87 0.85 0.89 0.94 0.95 0.95 0.93 0.91 0.89 0.84 0.78 0.79 0.78 0.73 0.65 0.58 0.54 0.54 0.53 0.54 0.57 0.60 0.63 0.67 0.69 0.68 0.67 0.67 0.68 0.68 0.67 0.66 0.65 0.65 0.67 0.69 0.68
1.02 1.01 0.99 0.98 0.97 0.90 0.88 0.89 0.93 0.95 0.95 0.94 0.93 0.89 0.86 0.78 0.78 0.76 0.74 0.67 0.60 0.55 0.55 0.56 0.59 0.62 0.63 0.64 0.66 0.68 0.69 0.70 0.69 0.68 0.67 0.67 0.66 0.65 0.65 0.65 0.65 0.65
1.06 1.05 1.04 1.01 1.00 0.94 0.92 0.91 0.93 0.96 0.97 0.96 0.96 0.93 0.87 0.79 0.77 0.76 0.73 0.69 0.63 0.61 0.61 0.62 0.62 0.64 0.65 0.66 0.66 0.67 0.67 0.66 0.66 0.66 0.66 0.67 0.67 0.66 0.66 0.66 0.67 0.65
1.10 1.09 1.09 1.06 1.02 0.97 0.96 0.94 0.94 0.98 1.01 1.02 1.00 0.95 0.91 0.84 0.79 0.76 0.72 0.69 0.66 0.67 0.69 0.68 0.66 0.65 0.67 0.68 0.68 0.68 0.67 0.66 0.67 0.65 0.64 0.63 0.65 0.66 0.68 0.71 0.74 0.77
1.17 1.15 1.15 1.12 1.08 1.04 1.01 0.96 0.94 1.02 1.05 1.03 1.00 0.98 0.95 0.90 0.85 0.80 0.72 0.68 0.69 0.70 0.70 0.70 0.68 0.68 0.68 0.68 0.68 0.67 0.67 0.66 0.65 0.63 0.61 0.61 0.62 0.65 0.68 0.71 0.74 0.79
1.21 1.19 1.19 1.18 1.15 1.12 1.09 1.05 1.05 1.09 1.08 1.07 1.05 1.03 0.98 0.93 0.87 0.83 0.77 0.71 0.71 0.71 0.71 0.70 0.70 0.72 0.71 0.69 0.68 0.68 0.67 0.65 0.65 0.64 0.63 0.63 0.65 0.67 0.70 0.72 0.75 0.78
1.18 1.18 1.18 1.16 1.16 1.14 1.13 1.12 1.11 1.14 1.16 1.12 1.09 1.06 0.99 0.93 0.89 0.86 0.82 0.77 0.76 0.73 0.71 0.70 0.71 0.72 0.70 0.70 0.69 0.68 0.67 0.67 0.65 0.66 0.66 0.68 0.70 0.73 0.75 0.77 0.80 0.84
1.18 1.18 1.17 1.18 1.17 1.15 1.14 1.12 1.09 1.10 1.11 1.10 1.09 1.03 0.99 0.98 0.93 0.90 0.86 0.82 0.80 0.78 0.76 0.75 0.75 0.73 0.73 0.71 0.71 0.70 0.70 0.72 0.74 0.74 0.76 0.76 0.76 0.77 0.80 0.83 0.85 0.87
1.18 1.17 1.17 1.14 1.15 1.13 1.13 1.12 1.10 1.11 1.09 1.08 1.08 1.07 1.03 0.94 0.94 0.94 0.92 0.90 0.85 0.80 0.79 0.80 0.79 0.79 0.78 0.77 0.75 0.75 0.75 0.76 0.77 0.78 0.77 0.78 0.80 0.80 0.81 0.82 0.83 0.84
1.13 1.12 1.10 1.11 1.12 1.12 1.10 1.06 1.03 1.02 1.03 1.06 1.06 1.04 0.99 0.97 1.01 1.02 1.00 0.95 0.92 0.89 0.85 0.82 0.80 0.81 0.81 0.81 0.80 0.79 0.78 0.78 0.79 0.79 0.79 0.79 0.81 0.83 0.85 0.85 0.85 0.84
1.07 1.07 1.07 1.08 1.09 1.08 1.06 1.04 1.02 1.02 1.00 1.00 0.98 0.98 0.99 1.01 1.02 0.99 0.97 0.97 0.97 0.95 0.91 0.86 0.84 0.83 0.82 0.82 0.82 0.82 0.83 0.83 0.84 0.84 0.83 0.83 0.85 0.87 0.88 0.88 0.87 0.87
1.01 1.02 1.02 1.05 1.04 1.04 1.02 1.01 1.00 1.01 0.98 0.99 0.99 1.00 1.02 1.02 0.99 0.96 0.95 0.94 0.94 0.94 0.92 0.89 0.88 0.88 0.87 0.87 0.86 0.87 0.89 0.90 0.91 0.90 0.89 0.89 0.91 0.93 0.94 0.94 0.94 0.93
0.96 0.98 0.99 1.00 0.99 0.97 0.96 0.95 0.95 0.95 0.95 0.95 0.95 1.00 0.99 0.98 0.97 0.95 0.94 0.92 0.90 0.88 0.86 0.86 0.86 0.87 0.88 0.88 0.89 0.90 0.92 0.94 0.95 0.95 0.96 0.96 0.98 1.00 1.00 0.99 0.98 0.96
0.92 0.93 0.95 0.95 0.93 0.90 0.89 0.90 0.93 0.94 0.94 0.94 0.97 0.95 0.93 0.93 0.95 0.94 0.93 0.91 0.90 0.89 0.89 0.86 0.85 0.86 0.87 0.88 0.90 0.91 0.93 0.94 0.95 0.96 0.97 0.97 0.98 0.99 0.99 0.97 0.97 0.94
0.87 0.88 0.89 0.90 0.89 0.88 0.87 0.86 0.86 0.87 0.89 0.92 0.92 0.91 0.90 0.90 0.91 0.90 0.90 0.90 0.90 0.90 0.90 0.88 0.87 0.88 0.87 0.87 0.88 0.89 0.90 0.91 0.91 0.89 0.86 0.86 0.85 0.84 0.86 0.84 0.84 0.84
0.81 0.81 0.82 0.81 0.81 0.82 0.83 0.84 0.85 0.85 0.85 0.85 0.85 0.86 0.85 0.85 0.86 0.85 0.86 0.85 0.85 0.84 0.89 0.90 0.91 0.90 0.89 0.88 0.88 0.87 0.86 0.87 0.87 0.82 0.78 0.77 0.78 0.77 0.76 0.79 0.82 0.83
Wind_Speed
18 17 16 16 15 15 14 13 12 11 10 10 9 8 7 7 7 7 7 6 6 6 6 6 6 6 5 5 5 5 5 6 6 6 6 6 6 6 7 7 8 8
18 17 16 15 15 14 13 13 12 11 10 9 9 8 7 6 6 7 7 6 6 6 6 6 6 6 5 5 4 4 5 5 5 5 6 6 6 6 6 7 8 8
18 17 17 16 15 14 14 12 12 11 10 9 9 8 7 6 6 6 6 6 6 6 6 6 6 6 5 5 4 4 5 5 5 5 5 5 5 5 6 6 7 8
18 18 17 16 15 15 14 13 12 11 10 10 9 8 7 7 7 6 6 7 6 6 6 6 6 6 5 5 5 5 5 5 5 5 4 4 5 5 5 6 7 8
18 18 17 16 15 15 14 14 13 12 11 10 10 9 8 8 8 7 7 7 7 7 7 7 7 7 6 5 5 5 5 5 5 5 4 4 5 5 5 6 7 7
19 18 18 17 16 15 14 14 14 13 12 11 10 9 9 8 8 8 8 8 8 8 7 7 7 8 7 6 6 6 5 5 5 5 5 5 5 5 5 6 7 7
19 19 18 17 16 15 15 14 14 13 12 11 10 10 9 9 9 8 8 8 8 8 8 8 8 8 8 7 7 7 6 6 6 6 6 5 5 5 5 6 7 7
19 19 18 17 16 16 15 15 14 13 12 11 10 10 10 9 9 8 8 8 8 8 8 8 8 9 8 8 8 7 7 7 6 6 7 7 6 6 6 6 7 7
19 19 18 18 17 16 16 15 15 14 13 12 11 11 10 9 9 9 8 8 8 9 9 9 9 9 9 8 8 8 7 7 7 7 7 7 7 7 7 7 7 7
19 19 18 17 17 17 16 16 15 14 14 13 12 11 11 10 10 9 9 9 9 9 9 10 10 9 9 9 8 8 8 7 7 7 7 7 8 8 8 8 8 8
19 19 18 17 17 17 17 16 16 15 14 14 13 12 12 11 10 10 9 9 9 10 10 11 11 11 10 10 9 9 9 8 8 8 8 8 8 9 9 9 9 9
19 19 18 17 17 16 16 16 16 16 15 14 13 13 12 12 11 10 10 10 10 10 10 11 11 11 11 10 10 10 10 10 9 9 9 9 9 9 10 10 10 10
19 19 18 17 17 16 16 16 17 17 16 15 14 14 13 13 12 12 11 11 11 11 11 11 11 11 11 11 11 11 11 11 11 11 11 11 11 11 11 11 11 12
19 19 18 17 17 17 16 16 16 17 17 16 15 15 14 14 13 13 13 13 13 13 13 13 13 13 12 12 12 12 12 12 12 12 12 11 11 11 12 12 12 13
18 18 19 18 18 17 17 16 16 17 17 17 16 16 16 15 15 14 14 14 14 14 14 14 14 14 13 13 13 13 13 13 12 12 12 12 12 12 12 13 13 13
18 18 18 18 18 18 17 17 16 16 17 17 17 17 17 17 17 16 15 15 16 15 15 15 15 14 14 14 14 14 13 13 12 12 12 12 12 13 13 14 14 14
18 18 19 19 19 20 19 19 19 19 20 20 20 19 19 18 18 18 17 17 16 16 16 16 15 15 14 14 15 15 14 14 13 13 13 13 13 14 14 15 16 16
17 18 18 19 20 20 21 21 21 21 21 22 22 21 21 20 20 20 18 17 17 17 17 16 16 15 15 15 16 16 16 15 15 15 14 15 15 16 16 17 17 18
15 16 16 16 16 17 17 18 17 17 17 17 18 19 20 20 19 19 18 17 17 17 17 16 16 16 16 16 17 17 17 17 17 17 17 17 17 18 18 19 20 20
12 12 13 13 13 13 13 13 13 13 14 14 15 15 17 17 17 17 17 17 16 16 16 16 16 16 16 17 17 18 18 19 19 19 19 19 20 20 21 21 22 22
10 10 11 11 11 11 11 11 11 12 13 13 13 13 13 14 15 15 15 15 15 16 16 16 16 17 17 18 18 18 19 20 20 20 21 21 22 22 22 23 23 24
9 10 10 10 10 9 9 9 9 10 10 11 12 12 12 12 13 13 14 14 15 15 16 16 17 18 18 19 19 20 21 22 22 22 23 23 23 24 24 24 25 25
8 9 9 9 9 8 8 9 9 9 9 10 11 12 12 13 13 13 14 14 14 15 16 17 17 18 19 20 21 22 23 23 24 24 24 25 25 26 26 26 26 27
7 7 8 8 8 8 9 9 10 10 10 11 12 12 13 13 14 14 15 15 15 16 17 17 18 19 20 21 22 22 23 24 24 25 26 26 27 27 27 28 28 28
7 8 8 8 9 9 9 10 11 11 11 12 13 13 13 14 14 15 16 16 17 18 19 19 20 21 21 22 22 23 24 25 25 26 27 27 28 28 29 29 29 29
8 8 8 9 9 10 10 11 11 12 12 13 13 14 14 15 15 16 17 18 19 20 20 21 22 22 22 23 23 24 25 26 27 28 28 29 30 30 31 31 31 32
Wind_Direction
199 200 201 203 204 204 206 206 206 208 211 215 220 224 228 231 230 227 227 229 232 235 242 244 242 241 241 240 239 234 227 221 217 215 215 217 219 220 219 216 213 210
198 200 202 203 204 206 207 207 207 209 212 214 217 221 224 225 225 225 225 226 229 236 245 248 243 239 238 236 235 227 216 211 209 209 211 214 218 220 218 215 212 209
199 200 202 203 205 206 207 208 210 212 213 215 218 221 223 225 226 227 226 225 229 239 249 250 242 236 234 231 228 218 206 201 201 203 206 210 214 215 214 212 209 206
201 202 203 205 207 207 209 210 212 213 214 216 220 225 228 230 231 231 231 231 233 240 248 248 240 232 228 224 219 209 199 197 195 194 195 197 199 200 200 202 201 199
204 204 206 208 210 211 211 212 212 212 214 218 223 229 234 234 234 235 237 238 236 238 244 244 237 228 222 218 213 205 198 197 194 190 188 188 190 191 192 192 191 190
207 206 207 210 212 212 212 212 211 211 214 221 227 232 236 236 237 238 240 240 237 237 239 239 234 225 220 217 211 205 201 200 198 195 193 192 192 193 193 192 190 189
207 206 207 210 211 211 211 211 212 213 217 223 227 232 236 238 239 240 240 238 235 234 234 234 229 221 218 216 212 208 206 205 205 205 204 203 201 201 200 199 198 197
206 207 208 209 210 211 212 213 214 216 219 224 227 231 235 238 239 239 238 237 233 233 232 230 227 220 216 215 211 209 210 212 214 215 213 211 208 208 208 208 207 207
207 207 208 210 211 213 215 216 218 219 222 225 227 230 233 236 238 237 237 236 234 232 230 228 225 218 214 212 210 209 212 215 218 218 216 214 212 213 214 215 215 215
210 210 210 211 214 216 218 218 220 221 222 225 226 228 231 235 238 237 236 237 234 230 228 226 223 218 215 212 211 212 214 215 216 216 217 217 218 220 221 222 224 225
212 211 210 213 217 219 220 220 221 222 222 224 226 228 231 235 237 237 235 235 232 228 225 224 222 219 217 216 216 216 217 218 218 220 222 223 224 226 227 229 231 232
211 210 211 215 219 220 220 221 222 222 223 225 227 229 231 235 238 237 235 233 230 226 223 222 220 218 218 219 219 220 222 224 226 227 229 231 231 232 234 236 237 238
210 211 214 217 220 221 222 223 223 223 224 226 230 232 233 236 239 238 236 234 230 226 225 226 223 221 219 220 221 223 226 229 232 233 234 236 237 239 240 242 244 244
212 214 216 219 221 222 223 224 224 224 225 228 232 234 236 239 241 240 237 234 231 228 228 228 226 224 223 223 225 227 230 233 235 237 239 240 242 244 245 246 248 249
217 218 220 222 222 222 224 226 225 225 227 231 235 238 239 240 241 239 236 233 231 230 229 228 227 227 227 228 230 231 234 237 239 241 243 245 247 248 249 250 250 251
222 222 222 223 224 225 227 228 227 229 232 236 239 241 241 241 239 237 236 233 232 231 229 228 228 229 231 232 234 236 238 240 242 245 248 250 252 253 253 252 251 252
224 225 226 229 230 230 231 232 234 238 241 242 242 243 243 242 240 237 236 235 233 231 229 228 229 230 233 235 238 239 240 242 244 248 252 254 256 257 257 255 254 254
228 230 231 234 235 235 236 237 240 244 246 244 243 242 243 242 238 235 234 235 234 231 228 227 229 233 237 239 241 242 243 246 249 253 255 257 259 260 260 260 259 258
229 230 230 231 231 231 232 233 235 237 239 239 238 239 239 236 232 230 230 233 233 230 229 231 235 241 244 244 245 245 246 250 254 257 258 259 260 261 262 263 263 262
218 219 219 220 220 220 220 223 227 230 233 235 235 234 232 227 224 224 225 229 231 231 234 237 242 247 249 248 248 248 250 254 257 259 260 261 261 262 263 263 264 264
205 207 210 212 213 214 216 220 225 229 231 231 228 226 222 217 217 220 225 229 233 236 238 241 246 251 253 253 253 253 255 257 260 261 262 263 263 263 264 264 264 264
204 207 209 211 213 215 217 218 219 222 224 224 221 219 216 215 218 223 228 231 235 239 242 246 250 255 256 257 259 260 260 260 261 262 263 264 265 265 265 265 264 264
209 209 210 213 216 219 218 215 214 216 220 222 220 219 222 225 227 230 232 235 239 244 248 252 255 258 260 260 261 263 262 262 263 263 265 266 266 266 267 266 265 265
216 216 215 216 220 222 221 219 220 223 226 227 224 223 227 232 234 234 238 242 246 250 254 257 259 262 263 262 262 263 263 264 264 265 265 266 267 267 267 267 266 265
223 224 223 224 226 228 228 228 230 231 231 229 227 227 231 235 238 240 244 249 253 256 259 262 263 265 264 264 264 265 266 265 265 266 266 267 268 268 268 268 267 266
231 231 230 231 233 234 234 235 235 235 235 234 234 236 239 242 246 249 251 254 257 260 263 264 263 263 263 264 265 267 267 267 266 266 267 268 269 269 269 269 269 269